Weather History for Hatteras, NC

Change the Weather History Date:

Sunday, February 9, 2014

  Actual Average Record
Temperature  
Mean Temperature 44 °F 46 °F  
Max Temperature 50 °F 53 °F 72 °F (1990)
Min Temperature 37 °F 40 °F 13 °F (1895)
Degree Days  
Heating Degree Days 21 19  
Month to date heating degree days 156 171  
Since 1 July heating degree days 1501 1584  
Cooling Degree Days 0 0  
Month to date cooling degree days 0 0  
Year to date cooling degree days 0 0  
Moisture  
Dew Point 37 °F    
Average Humidity 79    
Maximum Humidity 96    
Minimum Humidity 61    
Precipitation  
Precipitation 0.00 in 0.14 in 1.24 in (2010)
Month to date precipitation 1.00 1.34  
Year to date precipitation 6.34 6.58  
Snow  
Snow 0.00 in - - ()
Month to date snowfall 0.0  
Since 1 July snowfall T  
Snow Depth 0.00 in    
Sea Level Pressure  
Sea Level Pressure 30.12 in    
Wind  
Wind Speed 6 mph (NNE)    
Max Wind Speed 12 mph    
Max Gust Speed 19 mph    
Visibility 10 miles    
Events      
T = Trace of Precipitation, MM = Missing Value Source: NWS Daily Summary

Daily Weather History Graph

Daily Weather History Graph

Search for Another Location

Airport:

Trip Planner

Search our weather history database for the weather conditions in past years. The results will help you decide how hot, cold, wet, or windy it might be!

Date:

Astronomy

Feb. 09, 2014 Rise Set
Actual Time 6:54 AM EST 5:39 PM EST
Civil Twilight 6:28 AM EST 6:05 PM EST
Nautical Twilight 5:58 AM EST 6:35 PM EST
Astronomical Twilight 5:28 AM EST 7:04 PM EST
Moon 1:20 PM EST (2/9) 2:54 AM EST (2/9)
Length of Visible Light 11h 36m
Length of Day
10h 44m
Waxing Gibbous, 77% of the Moon is Illuminated
Feb 9
Waxing Gibbous
Feb 14
Full
Feb 22
Last Quarter
Mar 1
New
Mar 8
First Quarter

Hourly Weather History & Observations

Time (EST) Temp. Windchill Dew Point Humidity Pressure Visibility Wind Dir Wind Speed Gust Speed Precip Events Conditions
12:18 AM 37.0 °F 30.4 °F 36.0 °F 96% 30.14 in 10.0 mi North 9.2 mph - N/A   Mostly Cloudy
12:33 AM 37.0 °F 30.4 °F 36.0 °F 96% 30.14 in 10.0 mi North 9.2 mph - N/A   Scattered Clouds
12:51 AM 37.0 °F 30.4 °F 36.0 °F 96% 30.14 in 10.0 mi North 9.2 mph - N/A   Partly Cloudy
1:51 AM 37.9 °F 33.5 °F 36.0 °F 93% 30.15 in 10.0 mi North 5.8 mph - N/A   Partly Cloudy
2:51 AM 37.0 °F 31.6 °F 36.0 °F 96% 30.14 in 10.0 mi NNE 6.9 mph 17.3 mph N/A   Partly Cloudy
3:51 AM 37.0 °F 30.4 °F 35.1 °F 93% 30.14 in 10.0 mi NNE 9.2 mph - N/A   Clear
4:51 AM 37.9 °F 32.7 °F 35.1 °F 89% 30.15 in 10.0 mi NE 6.9 mph - N/A   Clear
5:51 AM 37.9 °F 31.5 °F 35.1 °F 89% 30.14 in 10.0 mi NE 9.2 mph 17.3 mph N/A   Clear
6:51 AM 37.9 °F 32.7 °F 36.0 °F 93% 30.15 in 10.0 mi NE 6.9 mph - N/A   Clear
7:51 AM 39.9 °F 34.5 °F 36.0 °F 86% 30.16 in 10.0 mi NE 8.1 mph - N/A   Clear
8:51 AM 43.0 °F 38.8 °F 36.0 °F 76% 30.17 in 10.0 mi Variable 6.9 mph - N/A   Clear
9:51 AM 43.0 °F 38.8 °F 36.0 °F 76% 30.20 in 10.0 mi NNE 6.9 mph - N/A   Clear
10:51 AM 43.0 °F 39.5 °F 36.0 °F 76% 30.20 in 10.0 mi Variable 5.8 mph - N/A   Clear
11:51 AM 46.0 °F 43.1 °F 37.0 °F 71% 30.18 in 10.0 mi Variable 5.8 mph - N/A   Clear
12:51 PM 46.9 °F - 37.0 °F 68% 30.14 in 10.0 mi Variable 4.6 mph - N/A   Clear
1:51 PM 48.0 °F - 37.9 °F 68% 30.11 in 10.0 mi Variable 3.5 mph - N/A   Clear
2:51 PM 50.0 °F - 37.0 °F 61% 30.09 in 10.0 mi SSE 4.6 mph - N/A   Clear
3:51 PM 48.9 °F - 39.0 °F 69% 30.09 in 10.0 mi North 3.5 mph - N/A   Clear
4:51 PM 46.9 °F - 39.9 °F 77% 30.07 in 10.0 mi Calm Calm - N/A   Clear
5:51 PM 43.0 °F 39.5 °F 39.0 °F 86% 30.04 in 9.0 mi East 5.8 mph - N/A   Clear
6:51 PM 39.9 °F 36.7 °F 36.0 °F 86% 30.03 in 10.0 mi East 4.6 mph - N/A   Clear
7:51 PM 39.0 °F 36.8 °F 37.0 °F 93% 30.02 in 10.0 mi East 3.5 mph - N/A   Clear
8:51 PM 39.0 °F - 37.0 °F 93% 30.05 in 7.0 mi Calm Calm - N/A   Clear
9:51 PM 43.0 °F 40.3 °F 41.0 °F 93% 30.09 in 10.0 mi North 4.6 mph - N/A   Scattered Clouds
10:51 PM 44.1 °F 41.5 °F 42.1 °F 93% 30.08 in 10.0 mi North 4.6 mph - N/A   Overcast
11:51 PM 43.0 °F 39.5 °F 41.0 °F 93% 30.06 in 7.0 mi WSW 5.8 mph - N/A   Clear